Location: Sternwarte ZA, Rosenfeld-Brittheim
(48.2889°N, 8.6789°E)
Time: 06:13:33
(UTC+02:00)

ISS - Pass Details

Date: 19 September 2020
Orbit: 419 x 420 km, 51.6° (Epoch: 21 September)

Event Time Altitude Azimuth Distance (km) Brightness Sun altitude
Rises 22:26:26 0° 264° (W) 2,365 0.7 -28.2°
Reaches altitude 10° 22:28:33 10° 270° (W) 1,502 -0.4 -28.4°
Enters shadow 22:29:06 14° 272° (W) 1,288 -0.7 -28.5°
